Погода в Совхозном

Россия / Кабардино-Балкарская Республика     43°48′05″N   43°08′48″E
темп.,
°C
ветер,
м/с
пор.,
м/с
влажн.,
%
обл.,
%
осадки,
мм/ч
давл.,
гПа
погр.,
м
20 апреля, вт
вт2000:00+12юв4889100 0.1 1015566
03:00+11ююв2391100 0.1 101265
06:00+12ююв2279100 0.0 100928
09:00+16вюв3464100 0.1 1006256
12:00+19вюв3365100 0.0 1006434
15:00+24вюв4539100 0.0 1004868
18:00+18ссз4776100 0.1 1007284
21:00+13сз4993100 1.1 1011406
21 апреля, ср
ср2100:00+12ссз2586100 0.0 1013300
03:00+11ссз2567100 0.0 1015382
06:00+10юв1164100 0.0 101646
09:00+11всв446744 0.0 1018957
12:00+12в5462100 0.0 10181386
15:00+11в3471100 0.2 1018977
18:00+10вюв3479100 0.2 1020488
21:00+9вюв3586100 0.3 1021450
22 апреля, чт
чт2200:00+9вюв138698 0.0 1021231
03:00+9вюв2590100 0.0 1021327
06:00+8в1495100 0.1 1021299
09:00+7в4698100 1.8 1023396
12:00+8вюв4591100 0.4 1023566
15:00+8вюв4590100 0.6 1022538
18:00+8юв4691100 0.1 1022413
21:00+7в2398100 0.9 1022220
23 апреля, пт
пт2300:00+7с2299100 2.1 1021171
03:00+7в2299100 6.4 1022237
06:00+7в1197100 0.9 1023128
09:00+7с1293100 2.1 1023210
12:00+12ссв337097 0.6 1022966
15:00+12всв216896 1.5 1021729
18:00+12всв117123 0.4 1021151
21:00+9юв118278 0.4 102110
24 апреля, сб
сб2400:00+9ююз2280100 0.0 101916
03:00+8юз2269100 0.0 101924
06:00+8юз2267100 0.0 101921
09:00+13ююв115549 0.1 1018683
12:00+16св33488 0.0 10181628
15:00+16всв3249100 0.0 10181556
18:00+13с2268100 0.1 101957
21:00+12зюз1173100 0.1 102011